EW6030 Weather Reports


time (UTC)temp
F
wind
direction
speed
knots
gust
knots
rain 1hr
in
rain 24hr
in
rain mn
in
humidity
%
barometer
mb
20260504023040 58 62 0.0 0.0 0.00 0.00 0.00 55 1001.3
20260504021539 59 62 0.0 0.0 0.00 0.00 0.00 58 1001.3
20260504020104 61 62 0.0 0.0 0.00 0.00 0.00 54 1001.0
20260504014554 61 62 0.0 0.0 0.00 0.00 0.00 50 1000.8
20260504013045 63 62 0.0 0.0 0.00 0.00 0.00 51 1000.7
20260504011537 64 62 0.0 0.0 0.00 0.00 0.00 45 1000.6
20260504010042 66 62 0.0 0.0 0.00 0.00 0.00 44 1000.6
20260504004548 68 62 0.0 0.0 0.00 0.00 0.00 40 1000.6
20260504003037 69 62 0.0 0.0 0.00 0.00 0.00 39 1000.6
20260504001550 69 58 0.0 0.0 0.00 0.00 0.00 39 1000.5
20260504000034 69 59 0.9 0.0 0.00 0.00 0.00 39 1000.4
20260503234534 70 58 0.0 0.0 0.00 0.00 0.00 38 1000.3
20260503233038 71 61 0.9 0.0 0.00 0.00 0.00 38 1000.2
20260503231531 70 69 1.7 0.0 0.00 0.00 0.00 39 1000.4
20260503230031 70 61 1.7 0.0 0.00 0.00 0.00 39 1000.5
20260503224528 70 64 1.7 0.0 0.00 0.00 0.00 42 1000.7
20260503223027 70 58 2.6 0.0 0.00 0.00 0.00 41 1000.8
20260503221526 70 51 2.6 0.0 0.00 0.00 0.00 41 1000.8
20260503220029 70 65 2.6 0.0 0.00 0.00 0.00 40 1000.9
20260503214524 70 60 1.7 0.0 0.00 0.00 0.00 41 1000.9
20260503213022 70 65 2.6 0.0 0.00 0.00 0.00 42 1000.9
20260503211521 69 43 2.6 0.0 0.00 0.00 0.00 42 1001.1
20260503210020 70 53 2.6 0.0 0.00 0.00 0.00 41 1001.4
20260503204517 69 63 2.6 0.0 0.00 0.00 0.00 43 1001.6
20260503203035 68 64 2.6 0.0 0.00 0.00 0.00 43 1001.7
20260503201511 68 68 3.5 0.0 0.00 0.00 0.00 42 1002.0
20260503200012 68 56 2.6 0.0 0.00 0.00 0.00 43 1002.1
20260503194514 67 66 3.5 0.0 0.00 0.00 0.00 42 1002.3
20260503193005 67 55 4.3 0.0 0.00 0.00 0.00 42 1002.6
20260503191504 66 83 3.5 0.0 0.00 0.00 0.00 43 1002.8
20260503190004 66 94 4.3 0.0 0.00 0.00 0.00 42 1002.7
20260503184605 66 72 4.3 0.0 0.00 0.00 0.00 44 1003.0
20260503183057 65 61 4.3 0.0 0.00 0.00 0.00 46 1003.0
20260503181600 64 76 2.6 0.0 0.00 0.00 0.00 49 1003.3
20260503180054 63 58 3.5 0.0 0.00 0.00 0.00 49 1003.5
20260503174548 62 66 4.3 0.0 0.00 0.00 0.00 50 1003.8
20260503173047 63 87 3.5 0.0 0.00 0.00 0.00 47 1003.9
20260503171548 63 27 2.6 0.0 0.00 0.00 0.00 49 1004.0
20260503100104 50 73 0.0 0.0 0.00 0.00 0.00 53 1008.1
20260503081550 49 66 0.0 0.0 0.00 0.00 0.00 53 1009.2
20260503071533 48 55 0.0 0.0 0.00 0.00 0.00 54 1009.4
20260503054533 50 74 0.0 0.0 0.00 0.00 0.00 50 1010.2
20260503053035 50 63 0.0 0.0 0.00 0.00 0.00 50 1010.3
20260503051521 50 38 0.0 0.0 0.00 0.00 0.00 48 1010.5
20260503050020 50 19 0.0 0.0 0.00 0.00 0.00 48 1010.5
20260503044517 50 18 0.0 0.0 0.00 0.00 0.00 49 1010.6
20260503043022 50 55 0.0 0.0 0.00 0.00 0.00 49 1010.6
20260503041514 50 56 0.0 0.0 0.00 0.00 0.00 48 1010.8
20260503040018 50 55 0.0 0.0 0.00 0.00 0.00 49 1010.8
20260503034511 50 55 0.0 0.0 0.00 0.00 0.00 50 1011.0
20260503033010 50 52 0.0 0.0 0.00 0.00 0.00 50 1011.1
20260503031511 50 52 0.0 0.0 0.00 0.00 0.00 49 1011.1
20260503030009 51 52 0.0 0.0 0.00 0.00 0.00 47 1011.3